SCP
0 0 0 0 0 0 0 0 0 0 0 0 0 0 0 0 0 0 0 0 0 0 0 0 0 0 0 0 0 0 0 0 0 0 0 1 1 1
0 0 0 0 0 0 0 0 0 0 0 0 0 0 0 0 0 0 0 0 0 0 0 0 0 0 0 0 0 0 0 0 0 0 0 0 1 1
0 0 0 0 0 0 0 0 0 0 0 0 0 0 0 0 0 0 0 0 0 0 0 0 0 0 0 0 0 0 0 0 0 0 0 0 0 0
0 0 0 0 0 0 0 0 0 0 0 0 0 0 0 0 0 0 0 0 0 0 0 0 0 0 0 0 0 0 0 0 0 0 0 0 0 0
0 0 0 0 0 0 0 0 0 0 0 0 0 0 0 0 0 0 0 0 0 0 0 0 0 0 0 0 0 0 0 0 0 0 0 0 0 0
0 0 0 0 0 0 0 0 0 0 0 0 0 0 0 0 0 0 0 0 0 0 0 0 0 0 0 0 0 0 0 0 0 0 0 0 0 0
0 0 0 0 0 0 0 0 0 0 0 0 0 0 0 0 0 0 0 0 0 0 0 0 0 0 0 0 0 0 0 0 0 0 0 0 0 0
0 0 0 0 0 0 0 0 0 0 0 0 0 0 0 0 0 0 0 0 0 0 0 0 0 0 0 0 0 0 0 0 0 0 0 0 0 0
0 0 0 0 0 0 0 0 0 0 0 0 0 0 0 0 0 0 0 0 0 0 0 0 0 0 0 0 0 0 0 0 0 0 0 0 0 0
0 0 0 0 0 0 0 0 0 0 0 0 0 0 0 0 0 0 0 0 0 0 0 0 0 0 0 0 0 0 0 0 0 0 0 0 0 0
0 0 0 0 0 0 0 0 0 0 0 0 0 0 0 0 0 0 0 0 0 0 0 0 0 0 0 0 0 0 0 0 0 0 0 0 0 0
0 0 0 0 0 0 0 0 0 0 0 0 0 0 0 0 0 0 0 0 0 0 0 0 0 0 0 0 0 0 0 0 0 0 0 0 0 0
0 0 0 0 0 0 0 0 0 0 0 0 0 0 0 0 0 0 0 0 0 0 0 0 0 0 0 0 0 0 0 0 0 0 0 0 0 0
0 0 0 0 0 0 0 0 0 0 0 0 0 0 0 0 0 0 0 0 0 0 0 0 0 0 0 0 0 0 0 0 0 0 0 0 0 0
0 0 0 0 0 0 0 0 0 0 0 0 0 0 0 0 0 0 0 0 0 0 0 0 0 0 0 0 0 0 0 0 0 0 0 0 0 0
0 0 0 0 0 0 0 0 0 0 0 0 0 0 0 0 0 0 0 0 0 0 0 0 0 0 0 0 0 0 0 0 0 0 0 0 0 0
0 0 0 0 0 0 0 0 0 0 0 0 0 0 0 0 0 0 0 0 0 0 0 0 0 0 0 0 0 0 0 0 0 0 0 0 0 0
0 0 0 0 0 0 0 0 0 0 0 0 0 0 0 0 0 0 0 0 0 0 0 0 0 0 0 0 0 0 0 0 0 0 0 0 0 0
0 0 0 0 0 0 0 0 0 0 0 0 0 0 0 0 0 0 0 0 0 0 0 0 0 0 0 0 0 0 0 0 0 0 0 0 0 0
0 0 0 0 0 0 0 0 0 0 0 0 0 0 0 0 0 0 0 0 0 0 0 0 0 0 0 0 0 0 0 0 0 0 0 0 0 0
0 0 0 0 0 0 0 0 0 0 0 0 0 0 0 0 0 0 0 0 0 0 0 0 0 0 0 0 0 0 0 0 0 0 0 0 0 0
0 0 0 0 0 0 0 0 0 0 0 0 0 0 0 0 0 0 0 0 0 0 0 0 0 0 0 0 0 0 0 0 0 0 0 0 0 0
0 0 0 0 0 0 0 0 0 0 0 0 0 0 0 0 0 0 0 0 0 0 0 0 0 0 0 0 0 0 0 0 0 0 0 0 0 0
Wind_Speed
3 3 3 2 3 3 3 3 2 2 2 3 2 2 3 3 5 4 4 6 7 6 6 7 8 8 9 10 10 11 13 14 16 18 20 21 22 23
3 4 4 3 3 3 3 3 4 4 3 2 3 3 4 5 5 5 5 8 7 7 7 7 8 9 9 10 10 11 12 14 15 16 18 19 20 21
5 5 6 5 4 4 4 4 4 4 5 4 3 3 4 5 5 4 4 4 5 8 8 8 9 9 10 10 11 11 12 13 14 15 17 18 19 20
7 6 7 5 6 5 4 5 5 6 5 6 4 3 4 4 5 5 4 4 4 7 9 9 9 9 10 11 11 11 12 12 13 14 15 16 18 19
7 7 7 6 7 5 6 6 5 5 5 5 5 3 4 3 4 4 4 4 4 5 7 7 7 8 9 10 11 11 11 12 12 12 13 14 15 16
8 8 8 8 9 8 6 7 6 6 5 5 6 5 4 4 3 4 4 3 4 4 4 4 5 6 7 9 10 11 11 12 12 12 12 13 13 14
8 9 9 11 12 9 7 7 7 6 5 6 6 4 4 4 4 3 4 4 4 3 3 3 3 4 5 6 9 11 12 12 13 13 13 13 13 14
9 9 9 11 12 13 14 13 11 9 8 7 6 7 8 6 5 4 4 3 4 2 2 4 3 5 5 5 8 11 12 12 13 13 14 14 14 14
10 9 8 8 10 9 10 12 13 14 14 10 10 10 9 7 6 6 6 6 6 3 2 5 4 6 6 7 11 12 13 13 13 13 14 14 14 15
11 11 11 10 10 10 9 9 10 10 11 11 11 11 11 9 8 7 6 5 6 5 4 5 5 6 7 7 10 12 12 13 13 13 14 14 14 14
12 12 12 12 13 13 11 11 11 10 11 14 14 13 13 12 8 5 5 5 6 5 5 5 5 5 5 7 7 10 11 11 11 12 12 13 13 12
10 11 14 15 15 14 12 11 13 12 9 8 9 11 11 11 12 10 8 7 6 5 5 5 4 3 4 3 3 3 4 7 9 11 11 12 11 8
10 9 10 16 18 17 15 13 15 11 8 8 7 7 7 7 8 9 9 9 9 8 5 5 4 4 5 5 4 4 4 4 4 5 9 11 12 11
11 10 10 15 17 17 14 15 16 12 7 7 7 7 7 8 8 8 10 11 11 11 8 8 6 7 7 7 6 5 5 5 5 6 5 7 10 13
11 14 14 15 14 12 16 16 13 9 8 8 9 10 9 8 7 6 7 9 11 11 11 11 11 9 8 8 8 7 6 6 6 7 6 6 6 6
12 13 15 14 12 11 10 10 10 9 10 10 10 9 7 7 7 7 6 6 6 9 10 12 12 12 10 11 9 9 8 6 4 5 5 6 6 6
7 7 7 7 8 9 9 9 8 8 10 10 9 9 8 8 8 7 6 6 7 8 8 6 8 9 11 9 9 9 9 9 8 8 7 7 7 7
8 8 10 10 10 10 10 9 9 10 10 10 9 9 9 9 8 7 7 7 9 9 9 7 5 4 5 8 12 11 9 9 8 8 8 8 9 7
9 10 10 10 10 10 9 9 9 9 9 9 9 9 9 9 8 8 8 8 9 9 9 7 6 7 8 9 8 14 11 9 8 8 8 8 9 7
9 10 10 9 9 9 9 9 8 8 8 8 9 9 9 9 9 9 8 10 9 9 8 8 8 10 11 10 7 6 13 11 8 9 8 8 8 7
8 9 9 8 8 8 8 8 8 8 8 8 8 9 9 9 9 9 9 10 10 9 9 10 10 11 8 6 7 8 7 12 12 8 8 7 7 6
8 8 8 8 8 8 8 7 7 8 9 8 8 8 8 9 10 11 9 9 9 10 11 9 7 6 7 9 10 10 9 7 9 11 10 8 6 6
8 7 7 7 7 7 7 8 9 8 8 8 7 8 8 8 8 8 9 9 9 9 9 8 7 7 8 9 10 9 11 10 7 6 6 6 7 7
Wind_Direction
218 214 216 219 208 209 202 191 193 250 278 280 290 307 325 320 326 330 323 319 319 313 301 284 273 267 263 257 251 246 241 236 232 229 226 224 223 222
219 219 225 223 216 212 210 209 207 212 244 258 260 283 302 307 315 320 310 311 308 305 296 285 276 267 261 259 254 248 242 237 234 231 227 223 222 221
231 225 234 226 221 217 210 209 211 207 238 261 253 268 277 286 303 306 300 298 296 294 291 283 274 267 262 258 256 252 247 242 237 233 229 224 222 221
237 231 240 232 227 223 214 217 219 214 227 257 261 260 259 272 281 291 296 299 293 291 288 282 275 269 264 259 256 253 249 246 241 235 231 227 225 224
237 234 239 230 234 229 222 226 229 227 220 240 260 255 263 269 280 282 286 290 295 293 291 286 281 275 267 260 255 252 248 246 243 238 234 230 227 226
238 235 237 231 234 233 228 228 229 233 230 239 255 258 259 260 256 266 280 279 293 297 296 294 295 296 282 269 259 252 247 243 242 241 238 234 231 228
242 239 238 238 237 231 227 226 222 228 234 241 251 253 253 248 247 243 262 280 279 265 281 283 294 298 293 279 266 256 250 244 239 238 237 235 233 231
243 243 243 247 247 242 237 231 219 224 234 238 247 249 255 249 245 239 246 258 274 247 258 281 281 283 282 274 266 261 256 249 242 237 234 233 232 231
236 240 244 241 234 240 245 247 241 234 228 232 245 248 251 242 232 238 232 234 245 250 249 275 267 273 274 273 267 264 259 253 247 240 235 232 231 231
235 233 236 242 235 230 239 245 246 244 238 236 240 245 246 244 231 237 244 246 253 251 226 258 264 266 275 273 267 263 261 256 249 243 239 235 233 233
238 234 232 239 237 225 231 243 251 253 246 239 237 242 242 237 223 220 222 229 253 252 206 229 255 267 271 269 267 263 260 256 253 248 243 238 234 232
243 237 232 232 234 220 223 231 243 249 246 247 242 244 245 244 224 219 224 230 245 256 218 211 240 250 275 259 266 273 268 257 252 250 245 240 231 227
243 241 237 227 228 225 218 225 234 237 238 240 246 248 246 241 233 223 220 224 234 243 222 199 231 233 250 274 280 278 275 272 263 251 241 237 228 220
243 243 239 229 225 225 221 227 230 229 236 237 241 245 244 241 237 230 226 227 233 244 243 219 236 242 250 260 266 267 265 263 263 263 255 235 229 227
247 244 240 233 226 228 228 224 221 221 221 229 237 242 242 245 242 237 234 234 240 244 245 234 234 242 241 249 256 261 269 267 255 255 252 241 233 223
247 247 242 238 231 232 230 225 219 216 217 228 237 244 245 240 238 234 238 233 242 249 240 235 232 232 238 241 246 253 252 255 255 248 250 250 242 232
252 247 237 229 228 227 227 226 219 214 219 228 234 239 240 240 240 231 230 229 233 248 250 233 226 229 234 238 242 244 248 249 250 252 251 255 251 239
244 242 238 230 227 226 224 224 220 218 220 222 226 231 235 236 238 229 222 225 233 241 245 242 222 215 229 238 227 241 244 246 248 243 239 250 255 245
235 239 237 233 229 226 224 222 223 222 218 218 221 226 229 232 233 232 226 226 233 239 240 234 219 219 237 249 231 213 227 238 240 239 235 236 249 251
237 241 240 237 233 229 227 226 227 225 218 218 221 224 225 227 230 232 230 229 232 235 238 232 223 221 229 244 250 231 215 226 235 239 239 237 245 252
252 248 246 242 237 233 230 227 225 225 223 218 220 223 224 225 230 233 233 231 230 233 235 237 232 223 232 243 248 245 235 220 225 234 235 231 236 238
260 253 249 244 240 236 230 225 224 225 225 223 223 224 225 225 230 234 233 232 228 229 237 242 234 210 211 224 237 246 247 238 229 230 238 238 231 229
270 262 255 248 242 235 230 227 226 227 224 223 224 226 226 226 228 232 234 234 233 233 236 238 229 217 221 226 235 242 245 241 233 228 229 232 243 256